TIANMU-1 15

Last updated on Sat Aug 15 2026 00:02:41 GMT+0000 (Coordinated Universal Time)

1 58700U 24004A 26226.61769741 .00002937 00000+0 11298-3 0 9993 2 58700 97.4673 52.8192 0008571 123.7920 236.4137 15.27173934144692
UTC large
Height (km)
Speed (km/s)
/
Latitude / Longitude
Inclination (degrees)
Orbital Period (minutes)
Azimuth
Elevation
Range (km)
Doppler Factor

Next 0 passes for location: London (51.5072 / 0.1276)

No passes found over London.
TIANMU-1 15